User: anonymous   Login
Location: Banios
(43.0451°N, 0.2335°E)
Time: 23:07:45
(UTC+00:00)
Language:

Cosmos 1943 Rocket - Orbit

View from above orbital plane
View from above orbital plane
View from above satellite
View from above satellite

Ground track
Ground track

The orbit data is extracted from the following two-line orbital elements,

1 19120U 88039B   21104.57029912  .00000015  00000-0  29930-4 0  9997
2 19120  71.0143 252.2429 0023044 210.4472 149.5316 14.19222932704375
Epoch (UTC): 14 April 2021 13:41:13
Eccentricity: 0.0023044
inclination: 71.0143°
perigee height: 811 km
apogee height: 844 km
right ascension of ascending node: 252.2429°
argument of perigee: 210.4472°
revolutions per day: 14.19222932
mean anomaly at epoch: 149.5316°
orbit number at epoch: 70437

The dashed part of the orbit path shows where the satellite is in the earth's shadow,  

DLR